Regional Weather Roundup
Issued by NWS Columbia, SC

Home | Current Version | Previous Version | Text Only | Print | Product List | Glossary On
Versions: 1 2 3 4 5 6 7 8 9 10 11 12 13 14 15 16 17 18 19 20 21 22 23 24 25 26 27 28 29 30 31 32 33 34 35 36 37 38 39 40 41 42 43 44 45 46 47 48 49 50
000
ASUS42 KCAE 262010
RWRCAE
REGIONAL WEATHER ROUNDUP
NATIONAL WEATHER SERVICE COLUMBIA SC
400 PM EDT SAT JUL 26 2014

NOTE: "FAIR" INDICATES FEW OR NO CLOUDS BELOW 12,000 FEET WITH NO
SIGNIFICANT WEATHER AND/OR OBSTRUCTIONS TO VISIBILITY.

NOT ALL STATIONS ARE QUALITY CONTROLLED BY THE NATIONAL
WEATHER SERVICE. USE DATA WITH CAUTION...ESPECIALLY
DEWPOINT OBSERVATIONS.

SCZ001>056-GAZ040-063>065-077-262100-
...UPSTATE SOUTH CAROLINA...

CITY           SKY/WX    TMP DP  RH WIND       PRES   REMARKS
ANDERSON       PTSUNNY   90  64  42 W10       30.02F
LIBERTY        FAIR      89  84  85 CALM      30.03F HX 113
SPARTANBURG    FAIR      90  64  43 SW6       30.01F
CLEMSON        PTSUNNY   89  61  38 MISG      30.03F
GREENVILLE     MOSUNNY   89  61  38 VRB3      30.03F
GREENWOOD      MOSUNNY   91  63  39 W7        30.01F
GREER          MOSUNNY   89  58  34 CALM      30.01F
ROCK HILL      MOSUNNY   87  66  49 W6        30.00F
CHESTER        FAIR      90  68  48 CALM      30.00F
LAURENS        FAIR      90  63  40 W8        30.01F


...CENTRAL SOUTH CAROLINA...

CITY           SKY/WX    TMP DP  RH WIND       PRES   REMARKS
COLUMBIA APT   PTSUNNY   92  69  47 SE5       29.97F HX  97
COLUMBIA OWENS MOSUNNY   92  69  47 S5        29.99F HX  97
DARLINGTON     SUNNY     90  70  51 CALM      29.99F HX  95
FLORENCE       MOSUNNY   90  69  50 S5        29.98F
MCENTIRE ANGB  PTSUNNY   91  69  48 VRB1      29.99F HX  96
ORANGEBURG     SUNNY     90  72  55 S5        29.99F HX  97
SUMTER SHAW    MOSUNNY   91  72  53 VRB2      29.97F HX  99
NEWBERRY       FAIR      91  63  38 NW5       30.02S
AIKEN          FAIR      93  68  43 W3        30.02F HX  97
BARNWELL       FAIR      93  68  43 SW6       29.99F HX  97
MANNING        FAIR      91  68  46 S6        29.98F HX  95
CAMDEN         MOCLDY    91  66  43 SW6       29.99F
LANCASTER      FAIR      90  70  51 CALM      30.00F HX  95
WINNSBORO      FAIR      93  64  38 S9        29.99F HX  95


...EASTERN AND COASTAL SOUTH CAROLINA...

CITY           SKY/WX    TMP DP  RH WIND       PRES   REMARKS
N MYRTLE BCH   SUNNY     87  74  64 S9        29.98F HX  95
CONWAY         FAIR      90  72  55 S6        29.98F HX  96
MARION         FAIR      90  68  48 CALM      29.98F
HARTSVILLE     MOCLDY    90  41  18 CALM      30.00F
FLORENCE       MOSUNNY   90  69  50 S5        29.98F
DARLINGTON     SUNNY     90  70  51 CALM      29.99F HX  95
CHARLESTON APT MOSUNNY   92  75  57 VRB5      29.98F HX 103
MOUNT PLEASANT FAIR      88  77  70 S7        29.99F HX 100
WALTERBORO       N/A     91  70  49 SW5       29.99F HX  97
BEAUFORT       PTSUNNY   91  75  59 E7        29.98F HX 101


...EASTERN GEORGIA...

CITY           SKY/WX    TMP DP  RH WIND       PRES   REMARKS
AUGUSTA BUSH F MOSUNNY   93  66  40 SW6       29.97F HX  96
AUGUSTA DANIEL MOSUNNY   94  62  34 NW8       30.00F
THOMSON        MOSUNNY   94  71  47 W3        30.05S HX 100
WASHINGTON     FAIR      95  72  46 SW7       30.01F HX 103
CLAXTON        FAIR      91  77  62 CALM      29.99F HX 105
SYLVANIA       PTCLDY    90  77  66 SW6       30.00F HX 103
STATESBORO     MOSUNNY   91  73  56 N5        30.00F HX  99
SAVANNAH       PTSUNNY   93  72  50 CALM      29.98F HX 101


...SOUTHERN NORTH CAROLINA...

CITY           SKY/WX    TMP DP  RH WIND       PRES   REMARKS
CHARLOTTE      PTSUNNY   87  64  46 SW7       30.00F
MONROE         MOSUNNY   88  69  53 SW7       29.99F
WADESBORO      PTCLDY    90  65  43 SW6       29.98F
ROCKINGHAM       N/A     90  66  45 CALM      29.99F
RUTHERFORDTON  PTSUNNY   86  64  48 S5        30.02F
ASHEVILLE      MOSUNNY   84  62  47 SW3       30.07F

$$


USA.gov is the U.S. government's official web portal to all federal, state and local government web resources and services.